www.pogodaiklimat.ru

Погода и климат >> Архив погоды >> Филиппины >> Серигао Сити


ПОГОДА в Серигао Сити

  • Прогноз погоды в Серигао Сити
  • Монитор погоды в Серигао Сити

АРХИВ ПОГОДЫ в Серигао Сити

Время (UTC), дата Ветер
(напр.,м/с)
 
Видим.   Явления Облачность Т
(С)
Тd
(С)
f
(%)
Тe
(С)
Тes
(С)
Комфортность P
(гПа)
Po
(гПа)
Тmin
(С)
Tmax
(С)
R
(мм)
R24
(мм)
S
(см)
09 11.07 В 1 20 км мгла {туман} 9/3 540 м
[Cu med, cong Ac As]
+30.0 +25.8 78 +45 +45 опасность
перегрева
1013.2 1008.7
12 11.07 Ю 2 15 км {туман} 6/3 540 м
[Cu med, cong Ci sp]
+27.9 +25.4 86 +41 +41 опасность
перегрева
1013.9 1009.4 +33.5
15 11.07 Ю 2 15 км зарница 9/3 500 м
[Cb cap Ac As]
+26.8 +24.7 88 +38 +38 очень
душно
1014.4 1009.9
18 11.07 штиль 0 15 км 4/3 540 м
[Cu med, cong Ci sp]
+26.0 +23.8 88 +36 +36 очень
душно
1012.3 1007.8
21 11.07 Ю 1 18 км 4/3 540 м
[Cu med, cong Ci sp]
+25.4 +24.1 93 +35 +35 очень
душно
1012.3 1007.8
00 12.07 Ю 2 20 км мгла {туман} 8/3 540 м
[Cu med, cong Ac cuf]
+28.7 +24.5 78 +41 +43 опасность
перегрева
1013.5 1009.0 +24.8
03 12.07 СВ 1 18 км мгла {туман} 9/3 500 м
[Cu med, cong Ac As]
+31.0 +25.5 73 +46 +52 опасность
перегрева
1012.7 1008.2
06 12.07 В 1 15 км мгла {туман} 10/3 500 м
[Cu med, cong Ac As]
+29.2 +25.6 81 +43 +47 опасность
перегрева
1010.7 1006.2 0.0
09 12.07 СВ 1 15 км слаб. дождь {гроза} 10/3 500 м
[Cu med, cong Ac As]
+26.6 +25.0 91 +38 +38 очень
душно
1011.2 1006.7 3
12 12.07 Ю 2 8000 м слаб. дождь {гроза} 10/3 500 м
[Cu med, cong Ac As]
+26.0 +24.7 93 +37 +37 очень
душно
1011.5 1007.0 +32.1 5
15 12.07 Ю 2 15 км зарница 9/3 500 м
[Cb cap Ac As]
+26.8 +24.7 88 +38 +38 очень
душно
1014.4 1009.9
18 12.07 ЮЗ 1 12 км 10/3 540 м
[Cu med, cong As op]
+25.0 +23.9 94 +34 +34 очень
душно
1010.3 1005.8 0.8
21 12.07 ЮЗ 1 15 км 9/3 540 м
[Cu med, cong Ac As]
+24.8 +23.7 94 +34 +34 очень
душно
1009.7 1005.2
00 13.07 20 км мгла {туман} 8/3 540 м
[Cu med, cong Ac cuf]
+27.1 +25.0 88 1011.2 1006.7 +23.6 5
03 13.07 ЮЗ 3 18 км мгла {туман} 8/3 540 м
[Cu med, cong Ac cuf]
+31.8 +25.8 71 +47 +53 опасность
перегрева
1010.4 1005.9
06 13.07 ЮЗ 1 18 км мгла {туман} 10/3 500 м
[Cu med, cong Ac As]
+30.9 +24.9 70 +44 +48 опасность
перегрева
1008.6 1004.1
09 13.07 Ю 1 15 км мгла {туман} 10/3 500 м
[Cu med, cong Ac As]
+27.6 +24.1 81 +38 +39 очень
душно
1009.4 1004.9 0.0
12 13.07 ЮЗ 1 12 км {ливн. осадки, туман} 10/3 500 м
[Cu med, cong Ac As]
+26.0 +24.9 94 +37 +37 очень
душно
1010.7 1006.2 +32.6 0.4
15 13.07 ЮЗ 2 12 км 10/3 540 м
[Cu med, cong Ac As]
+25.6 +24.8 95 +36 +36 очень
душно
1010.5 1006.0
18 13.07 З 2 15 км 10/3 540 м
[Cu med, cong Ac As]
+25.2 +24.4 95 +35 +35 очень
душно
1008.7 1004.2
21 13.07 З 2 15 км 10/3 540 м
[Cu med, cong Ac As]
+24.8 +23.7 94 +34 +34 очень
душно
1008.4 1003.9
00 14.07 ЮЗ 2 15 км мгла {туман} 9/3 540 м
[Cu med, cong Ac As]
+27.8 +25.2 86 +40 +43 очень
душно
1009.5 1005.0 +24.6 0.4
03 14.07 З 1 15 км мгла {туман} 9/3 540 м
[Cu med, cong Ac As]
+29.6 +26.2 82 +45 +52 опасность
перегрева
1008.9 1004.4
06 14.07 С 1 15 км осадки на расстоянии {туман} 10/3 500 м
[Cu med, cong Ac As]
+29.2 +25.0 78 +42 +46 опасность
перегрева
1007.8 1003.3
09 14.07 С 1 15 км мгла {туман} 9/3 540 м
[Cu med, cong Ac As]
+28.6 +24.6 79 +41 +41 опасность
перегрева
1007.6 1003.1
12 14.07 С 1 15 км {туман} 10/3 500 м
[Cu med, cong Ac As]
+28.2 +23.8 77 +39 +39 очень
душно
1009.4 1004.9 +31.8
15 14.07 Ю 1 12 км слаб. ливневой дождь 10/3 500 м
[Cu med, cong Ac As]
+27.0 +23.8 83 +37 +37 очень
душно
1009.7 1005.2 0.5
18 14.07 ЮЗ 2 12 км слаб. дождь 10/3 500 м
[Cu med, cong As op]
+25.3 +24.1 93 +35 +35 очень
душно
1007.6 1003.1 6
21 14.07 В 1 15 км в посл. час ливневой дождь 9/3 500 м
[Cu med, cong Ac As]
+25.3 +23.4 89 +34 +34 очень
душно
1006.8 1002.3 0.3
00 15.07 З 2 8000 м слаб. дождь {туман} 10/3 500 м
[Cu med, cong Ac As]
+26.0 +24.7 93 +37 +39 очень
душно
1008.5 1004.0 +24.3 7
03 15.07 С 1 8000 м слаб. дождь 10/3 500 м
[Cu med, cong Ac As]
+26.3 +24.8 91 +37 +42 очень
душно
1008.2 1003.7 7
06 15.07 С 2 8000 м слаб. ливневой дождь 10/4 500 м
[Cu med, cong As op]
+26.6 +25.0 91 +38 +40 очень
душно
1006.8 1002.3 11
09 15.07 З 5 10 км слаб. ливневой дождь 10/3 500 м
[Cu med, cong Ac As]
+27.0 +24.9 88 +39 +39 очень
душно
1006.2 1001.7 1
12 15.07 ЮЗ 2 10 км {ливн. осадки} 10/3 500 м
[Cu med, cong Ac As]
+27.0 +24.1 84 +37 +37 очень
душно
1007.8 1003.3 +28.8 1
15 15.07 З 1 10 км 10/3 500 м
[Cu med, cong Ac As]
+26.5 +24.5 89 +37 +37 очень
душно
1008.1 1003.6
18 15.07 ЮЗ 2 10 км в посл. час ливневой дождь 10/3 500 м
[Cu med, cong Ac As]
+26.2 +25.2 94 +38 +38 очень
душно
1006.5 1002.0 3
21 15.07 ЮЗ 2 10 км в посл. час ливневой дождь 10/3 500 м
[Cu med, cong Ac As]
+26.5 +24.2 87 +37 +37 очень
душно
1006.8 1002.3 0.6
00 16.07 Ю 2 8000 м слаб. дождь 10/3 500 м
[Cu med, cong As op]
+24.8 +24.1 96 +34 +35 очень
душно
1008.6 1004.1 +23.9 30
03 16.07 ЮЗ 2 12 км мгла {дождь, туман} 10/3 500 м
[Cu med, cong Ac As]
+28.2 +25.6 86 +42 +46 опасность
перегрева
1006.7 1002.2 0.4
06 16.07 ЮЗ 2 15 км мгла {дождь, туман} 10/4 500 м
[Cu med, cong Ac As]
+29.2 +25.3 80 +43 +45 опасность
перегрева
1006.1 1001.6 0.4
09 16.07 СЗ 1 15 км мгла {туман} 10/4 500 м
[Cu med, cong Ac As]
+28.4 +24.7 80 +40 +41 очень
душно
1005.8 1001.3 0.0
12 16.07 ЮЗ 1 12 км {ливн. осадки, туман} 10/3 500 м
[Cu med, cong Ac As]
+27.8 +23.6 78 +38 +38 очень
душно
1007.6 1003.1 +29.5 0.0
15 16.07 ЮЗ 1 12 км 10/3 500 м
[Cu med, cong Ac As]
+27.5 +23.5 79 +37 +37 очень
душно
1009.1 1004.6
18 16.07 Ю 2 12 км 10/3 500 м
[Cu med, cong Ac As]
+27.5 +22.6 75 +36 +36 очень
душно
1006.8 1002.3
21 16.07 З 1 12 км 10/3 500 м
[Cu med, cong Ac As]
+27.2 +23.0 78 +36 +36 очень
душно
1007.4 1002.9
00 17.07 штиль 0 12 км мгла {туман} 10/3 500 м
[Cu med, cong Ac As]
+26.7 +24.6 88 +38 +40 очень
душно
1007.5 1003.0 +24.9 2
03 17.07 Ю 2 15 км мгла {туман} 10/3 500 м
[Cu med, cong Ac As]
+30.9 +23.4 64 +41 +46 опасность
перегрева
1007.4 1002.9
06 17.07 Ю 2 18 км мгла {туман} 9/3 500 м
[Cu med, cong Ac As]
+33.5 +24.2 58 +45 +50 опасность
перегрева
1006.4 1001.9
09 17.07 ЮЗ 1 18 км мгла {туман} 9/3 500 м
[Cu med, cong Ac As]
+30.4 +25.6 76 +45 +45 опасность
перегрева
1006.7 1002.2
12 17.07 Ю 1 15 км {туман} 4/3 540 м
[Cu med, cong Ci fib]
+27.0 +24.9 88 +39 +39 очень
душно
1008.5 1004.0 +33.6
15 17.07 Ю 2 15 км 4/1 540 м
[Cu med, cong Ci sp]
+25.6 +23.4 88 +35 +35 очень
душно
1009.1 1004.6
18 17.07 ЮЗ 2 15 км 1/1 540 м
[Cu med, cong]
+24.6 +22.7 89 +32 +32 очень
душно
1008.5 1004.0
21 17.07 Ю 2 18 км 1/1 540 м
[Cu med, cong]
+23.6 +21.4 87 +30 +30 очень
душно
1008.6 1004.1
00 18.07 В 1 20 км мгла {туман} 3/3 540 м
[Cu med, cong]
+27.5 +22.5 74 +36 +43 очень
душно
1010.0 1005.5 +23.9
03 18.07 СВ 2 20 км мгла {туман} 5/3 540 м
[Cu med, cong Ci sp]
+32.0 +23.6 61 +43 +57 опасность
перегрева
1009.4 1004.9
06 18.07 Ю 4 15 км мгла {туман} 5/3 480 м
[Cu med, cong Ac trans Ci fib]
+31.8 +25.0 67 +45 +51 опасность
перегрева
1008.4 1006.3

 

Местоположение метеостанции Серигао Сити (Филиппины): широта 9.80 долгота 125.50 высота над уровнем моря 55 м.

В архиве по умолчанию представлена погода в Серигао Сити за последнюю неделю. Архивные данные за месяц целиком и за предыдущие месяцы, начиная с января 2011 года, Вы можете получить, выбрав интересующий диапазон дат из раскрывающегося списка и нажав кнопку "Ввод!".


*Определитесь, кто Вы:
робот инопланетянин человек

Внимание! Время в таблицах - всемирное. Для получения местного времени необходимо прибавить поправку, которая равна 8 ч.

Смотрите также архив погоды в соседних городах и на ближайших метеорологических станциях:

Погода в Маасине (Филиппины) (82 км)
Погода в Бутуане (Филиппины) (97 км)
Погода в Гуиуане (Филиппины) (139 км)
Погода в Таклобане (Филиппины) (170 км)
Погода в Мактане (Филиппины) (178 км)
Погода в Тагбиларане (Филиппины) (182 км)
Погода в Хинатуане (Филиппины) (183 км)
Погода в Малайбалае (Филиппины) (189 км)
Погода в Кагаян-де-Оро (Филиппины) (203 км)
Погода в Боронган Сити (Филиппины) (206 км)

Пояснения к столбцам:

Ветер - указаны скорость ветра в м/с - средняя за 10 мин, порывы в срок и между сроками (в фигурных скобках) и направление, откуда дует ветер: С - северный, СВ - северо-восточный, В - восточный, ЮВ - юго-восточный, Ю - южный, ЮЗ - юго-западный, З - западный, СЗ - северо-западный.
Видимость - горизонтальная дальность видимости в метрах или километрах. При видимости от 1 до 10 км при отсутствии осадков обычно наблюдается дымка, при ухудшении видимости до 1 км и менее - туман. В сухую погоду видимость может ухудшаться дымом, пылью или мглою.
Явления - указаны атмосферные явления, наблюдавшиеся в срок или в последний час перед сроком; фигурными скобками обозначены явления, наблюдавшиеся между сроками (за 1-3 часа до срока); квадратными скобками обозначены град или гололедные отложения с указанием их диаметра в мм.
Облачность - указаны через наклонную черту общая и нижняя облачность в баллах и высота нижней границы облаков в метрах; квадратными скобками обозначены формы облаков: Ci - перистые, Cs - перисто-слоистые, Cc - перисто-кучевые, Ac - высококучевые, As - высокослоистые, Sc - слоисто-кучевые, Ns - слоисто-дождевые, Cu - кучевые, Cb - кучево-дождевые. Подробнее классификацию облаков см. в Атласе облаков (PDF).
T - Температура воздуха - температура, измеренная на высоте 2 м над землей.
Td - Температура точки росы - температура, при понижении до которой содержащийся в воздухе водяной пар достигнет насыщения.
f - Относительная влажность воздуха - влажноcть воздуха, измеренная на высоте 2 м над землей.
Te - Эффективная температура - температура, которую ощущает одетый по сезону человек в тени. Характеристика душности погоды. При расчете учитывается влияние влажности воздуха и скорости ветра на теплоощущения человека.
Tes - Эффективная температура на солнце - температура, которую ощущает человек, с поправкой на солнечный нагрев. Характеристика знойности погоды. Зависит от высоты солнца над горизонтом, облачности и скорости ветра. Ночью, в пасмурную погоду, а также при ветре 12 м/с и более поправка равна нулю.
P - Атмосферное давление - приведенное к уровню моря атмосферное давление.
Po - Атмосферное давление - измеренное на уровне метеостанции атмосферное давление.
Tmin - Минимальная температура - минимум температуры воздуха на высоте 2 м над землей.
Tmax - Максимальная температура - максимум температуры воздуха на высоте 2 м над землей.
R - Количество осадков - Количество выпавших осадков за период времени, мм. При наведении курсора мыши на число - период времени, за который выпало указанное количество осадков.
R24 - Количество осадков - Количество выпавших осадков за 24 часа, мм.
S - Снежный покров - Высота снежного покрова, см. При наведении курсора мыши на число - состояние снежного покрова и степень покрытия местности в баллах.